Location: Gleizolles
(44.4833°N, 6.7667°E)
Time: 17:17:52
(UTC+00:00)

Transit 2A - Pass Details

Date: 29 June 2024
Orbit: 591 x 960 km, 66.7° (Epoch: 16 July)

Event Time Altitude Azimuth Distance (km) Brightness Sun altitude
Rises 19:54:24 0° 332° (NNW) 3,510 10.9 -5.5°
Reaches altitude 10° 19:57:23 10° 347° (NNW) 2,615 9.7 -5.9°
Maximum altitude 20:02:17 24° 40° (NE) 1,847 8.0 -6.5°
Drops below altitude 10° 20:07:19 10° 92° (E) 2,692 8.4 -7.2°
Enters shadow 20:09:16 - 102° (ESE) 3,266 8.7 -7.4°
